Stations météo

réclame
Mon MeteoGroup
Cordoba Aeropuerto (AWS), Espagne (8410): Température de l'air & dewpoint: 08.08.2018 23:00:00 - 14.08.2018 23:00:00 (CEST)Cordoba Aeropuerto (AWS), Espagne (8410): Vitesse du vent: 08.08.2018 23:00:00 - 14.08.2018 23:00:00 (CEST)Cordoba Aeropuerto (AWS), Espagne (8410): Direction du vent: 08.08.2018 23:00:00 - 14.08.2018 23:00:00 (CEST)Cordoba Aeropuerto (AWS), Espagne (8410): reduced air pressure: 08.08.2018 23:00:00 - 14.08.2018 23:00:00 (CEST)Cordoba Aeropuerto (AWS), Espagne (8410): visibility: 08.08.2018 23:00:00 - 14.08.2018 23:00:00 (CEST)
Date & Time tt [°C] td [°C] ff [km/h] ff [knt] dd ppp [hPa] vv [km]
14.08.2018 23:00:00 27,5 11,9 13 7 WSW 1014,8 -
14.08.2018 22:00:00 28,5 11,1 13 7 W 1013,9 -
14.08.2018 21:00:00 32,1 9,0 11 6 WSW 1013,3 -
14.08.2018 20:00:00 35,2 6,5 15 8 WSW 1013,0 -
14.08.2018 19:00:00 35,9 8,7 16 9 WSW 1013,2 -
14.08.2018 18:00:00 36,4 9,8 18 10 WSW 1013,6 -
14.08.2018 17:00:00 36,2 9,7 16 9 WSW 1013,8 -
14.08.2018 16:00:00 35,8 9,2 16 9 W 1014,2 -
14.08.2018 15:00:00 35,4 9,0 16 9 SW 1014,9 -
14.08.2018 14:00:00 33,6 12,2 13 7 WSW 1015,4 30
14.08.2018 13:00:00 31,7 12,5 11 6 W 1016,1 -
14.08.2018 12:00:00 29,3 13,1 4 2 WSW 1016,5 -
14.08.2018 11:00:00 27,6 13,5 5 3 SSW 1016,7 -
14.08.2018 10:00:00 25,3 14,1 0 0 N 1016,6 -
14.08.2018 09:00:00 22,4 14,3 0 0 N 1016,3 -
14.08.2018 08:00:00 19,5 14,5 0 0 N 1016,1 30
14.08.2018 07:00:00 19,2 14,7 0 0 N 1015,7 -
14.08.2018 06:00:00 19,9 14,3 4 2 WSW 1015,1 -
14.08.2018 05:00:00 20,5 15,1 8 4 W 1015,0 -
14.08.2018 04:00:00 21,3 14,0 8 4 WSW 1015,1 -
14.08.2018 03:00:00 22,9 13,7 9 5 SW 1014,9 -
14.08.2018 02:00:00 23,8 13,6 8 4 WSW 1014,7 -
14.08.2018 01:00:00 25,1 13,6 8 4 WSW 1014,2 -
14.08.2018 00:00:00 26,8 13,2 13 7 WSW 1014,0 -
13.08.2018 23:00:00 28,7 11,8 18 10 WSW 1013,1 -
13.08.2018 22:00:00 30,6 11,5 18 10 WSW 1012,1 -
13.08.2018 21:00:00 33,2 11,7 21 11 W 1011,1 -
13.08.2018 20:00:00 35,4 11,8 18 10 W 1010,5 30
13.08.2018 19:00:00 36,5 10,6 16 9 WSW 1010,6 -
13.08.2018 18:00:00 37,1 8,8 18 10 WSW 1010,9 -
13.08.2018 17:00:00 37,0 11,1 13 7 SW 1011,4 -
13.08.2018 16:00:00 36,7 11,7 15 8 WSW 1012,2 -
13.08.2018 15:00:00 35,4 11,1 16 9 WSW 1012,9 -
13.08.2018 14:00:00 33,7 13,3 16 9 WSW 1013,6 30
13.08.2018 13:00:00 32,1 15,4 15 8 W 1014,5 -
13.08.2018 12:00:00 30,4 15,7 11 6 WSW 1014,9 -
13.08.2018 11:00:00 27,7 18,4 13 7 W 1015,0 -
13.08.2018 10:00:00 25,1 19,0 9 5 WSW 1015,1 -
13.08.2018 09:00:00 22,6 18,8 9 5 WSW 1015,0 -
13.08.2018 08:00:00 21,6 18,4 5 3 SSW 1014,4 -
13.08.2018 07:00:00 21,7 18,5 4 2 W 1014,0 -
13.08.2018 06:00:00 22,3 18,7 5 3 SW 1013,9 -
13.08.2018 05:00:00 23,2 18,9 5 3 WSW 1013,8 -
13.08.2018 04:00:00 24,0 19,1 8 4 WSW 1013,8 -
13.08.2018 03:00:00 25,3 18,7 11 6 WSW 1014,0 -
13.08.2018 02:00:00 26,6 18,5 16 9 WSW 1013,8 -
13.08.2018 01:00:00 28,3 18,4 15 8 SW 1013,8 -
13.08.2018 00:00:00 29,5 17,7 11 6 WSW 1013,6 -
12.08.2018 23:00:00 30,6 17,7 16 9 WSW 1013,0 -
12.08.2018 22:00:00 31,6 13,1 11 6 WSW 1012,0 -
12.08.2018 21:00:00 33,7 11,5 11 6 WSW 1011,2 -
12.08.2018 20:00:00 36,4 11,3 16 9 WSW 1010,8 30
12.08.2018 19:00:00 37,1 12,0 18 10 WSW 1011,3 -
12.08.2018 18:00:00 38,2 12,0 18 10 WSW 1011,6 -
12.08.2018 17:00:00 38,7 13,7 13 7 SW 1011,9 30
12.08.2018 16:00:00 37,5 13,5 15 8 WSW 1012,8 -
12.08.2018 15:00:00 36,9 14,2 16 9 WSW 1013,7 -
12.08.2018 14:00:00 36,3 14,7 11 6 S 1014,6 -
12.08.2018 13:00:00 34,3 16,2 8 4 NW 1015,3 -
12.08.2018 12:00:00 33,5 17,1 4 2 ESE 1015,9 -
12.08.2018 11:00:00 31,1 18,1 4 2 ENE 1016,0 -
12.08.2018 10:00:00 28,5 18,0 9 5 ENE 1016,3 -
12.08.2018 09:00:00 27,2 17,9 5 3 E 1016,5 -
12.08.2018 08:00:00 23,8 18,4 0 0 N 1016,2 30
12.08.2018 07:00:00 24,0 18,2 2 1 NW 1015,8 -
12.08.2018 06:00:00 24,5 18,6 8 4 WSW 1015,5 -
12.08.2018 05:00:00 25,4 18,1 0 0 N 1015,6 -
12.08.2018 04:00:00 26,9 17,1 13 7 SW 1015,6 -
12.08.2018 03:00:00 26,8 16,7 8 4 WSW 1015,9 -
12.08.2018 02:00:00 27,6 16,9 9 5 W 1016,0 -
12.08.2018 01:00:00 29,0 16,5 9 5 SW 1016,7 -
12.08.2018 00:00:00 30,2 17,3 8 4 W 1016,1 -
11.08.2018 23:00:00 31,3 16,9 5 3 WNW 1015,7 -
11.08.2018 22:00:00 32,8 15,3 13 7 SE 1014,9 -
11.08.2018 21:00:00 35,4 13,5 15 8 S 1014,3 -
11.08.2018 20:00:00 37,4 14,1 15 8 SW 1013,7 50
11.08.2018 19:00:00 38,1 15,3 13 7 W 1013,5 -
11.08.2018 18:00:00 39,0 13,4 11 6 WSW 1014,1 -
11.08.2018 17:00:00 38,8 13,9 15 8 SSW 1014,8 50
11.08.2018 16:00:00 37,8 13,1 9 5 WSW 1015,4 -
11.08.2018 15:00:00 37,7 13,0 8 4 WSW 1016,2 -
11.08.2018 14:00:00 37,3 13,3 11 6 SSE 1017,2 50
11.08.2018 13:00:00 35,1 13,3 11 6 E 1017,9 -
11.08.2018 12:00:00 33,5 13,5 9 5 E 1018,5 -
11.08.2018 11:00:00 31,2 12,1 9 5 ENE 1019,0 50
11.08.2018 10:00:00 28,3 12,6 11 6 E 1019,3 -
11.08.2018 09:00:00 25,9 12,6 8 4 E 1019,3 -
11.08.2018 08:00:00 22,4 12,3 2 1 ENE 1018,9 50
11.08.2018 07:00:00 21,8 13,2 0 0 N 1018,6 -
11.08.2018 06:00:00 23,0 11,7 5 3 S 1018,4 -
11.08.2018 05:00:00 22,9 13,4 5 3 SW 1018,5 -
11.08.2018 04:00:00 25,1 12,3 0 0 N 1018,7 -
11.08.2018 03:00:00 26,0 13,1 9 5 W 1018,7 -
11.08.2018 02:00:00 26,5 14,0 9 5 WNW 1018,9 -
11.08.2018 01:00:00 27,8 13,7 9 5 WNW 1018,6 -
11.08.2018 00:00:00 29,7 12,2 4 2 SSE 1018,1 -
10.08.2018 23:00:00 30,3 12,0 4 2 WSW 1017,7 -
10.08.2018 22:00:00 32,1 10,7 11 6 S 1016,0 -
10.08.2018 21:00:00 34,5 10,4 9 5 S 1015,1 -
10.08.2018 20:00:00 36,6 10,7 15 8 SW 1014,8 50
10.08.2018 19:00:00 37,8 10,2 15 8 SSW 1014,6 -
10.08.2018 18:00:00 38,8 6,5 8 4 WSW 1014,7 -
10.08.2018 17:00:00 38,7 5,3 9 5 SSW 1015,2 50
10.08.2018 16:00:00 37,7 4,6 8 4 WNW 1015,8 -
10.08.2018 15:00:00 36,8 3,9 8 4 SSW 1016,3 -
10.08.2018 14:00:00 35,7 5,1 4 2 ENE 1016,7 50
10.08.2018 13:00:00 33,6 5,2 15 8 E 1017,2 -
10.08.2018 12:00:00 31,6 4,4 15 8 E 1017,6 -
10.08.2018 11:00:00 27,7 6,4 8 4 ENE 1017,7 50
10.08.2018 10:00:00 24,9 10,0 8 4 ENE 1018,0 -
10.08.2018 09:00:00 21,8 9,7 2 1 SE 1018,1 -
10.08.2018 08:00:00 17,0 9,5 0 0 N 1018,2 50
10.08.2018 07:00:00 16,6 9,8 0 0 N 1017,5 -
10.08.2018 06:00:00 17,5 9,4 0 0 N 1017,1 -
10.08.2018 05:00:00 18,6 10,9 0 0 N 1017,0 -
10.08.2018 04:00:00 19,9 10,9 0 0 N 1016,5 -
10.08.2018 03:00:00 21,6 7,0 5 3 SSW 1016,6 -
10.08.2018 02:00:00 - - - - - - -
10.08.2018 01:00:00 24,8 7,0 5 3 W 1016,1 -
10.08.2018 00:00:00 29,6 2,8 11 6 N 1015,4 -
09.08.2018 23:00:00 28,4 7,0 11 6 NW 1015,1 -
09.08.2018 22:00:00 28,0 6,7 0 0 N 1014,2 -
09.08.2018 21:00:00 32,1 5,6 9 5 W 1013,3 -
09.08.2018 20:00:00 33,9 7,8 18 10 WSW 1012,8 55
09.08.2018 19:00:00 34,8 7,0 22 12 SW 1012,8 -
09.08.2018 18:00:00 34,8 9,2 21 11 SW 1013,2 -
09.08.2018 17:00:00 34,3 9,5 18 10 WSW 1013,8 50
09.08.2018 16:00:00 33,9 9,9 11 6 SW 1014,5 -
09.08.2018 15:00:00 33,1 10,4 15 8 SW 1015,0 -
09.08.2018 14:00:00 31,5 9,7 15 8 SW 1015,4 50
09.08.2018 13:00:00 30,1 11,6 8 4 WSW 1015,9 -
09.08.2018 12:00:00 28,2 11,7 8 4 SSW 1016,1 -
09.08.2018 11:00:00 25,7 12,9 4 2 SSE 1016,0 50
09.08.2018 10:00:00 23,9 13,1 4 2 S 1016,1 -
09.08.2018 09:00:00 21,4 13,8 0 0 N 1015,8 -
09.08.2018 08:00:00 18,8 13,6 0 0 N 1015,3 50
09.08.2018 07:00:00 18,3 13,6 8 4 SSW 1014,8 -
09.08.2018 06:00:00 18,6 14,5 5 3 W 1014,2 -
09.08.2018 05:00:00 19,5 13,7 8 4 S 1013,9 -
09.08.2018 04:00:00 20,6 14,3 0 0 N 1013,9 -
09.08.2018 03:00:00 21,5 14,6 9 5 W 1013,8 -
09.08.2018 02:00:00 22,8 14,1 8 4 W 1013,9 -
09.08.2018 01:00:00 24,4 13,6 11 6 W 1013,5 -
09.08.2018 00:00:00 26,4 11,3 15 8 SW 1013,1 -
08.08.2018 23:00:00 27,9 5,5 18 10 WSW 1012,2 -

tt = Température de l'air
td = dewpoint
ff = Vitesse du vent
dd = Direction du vent
ppp = reduced air pressure
vv = visibility

stations d'obs. à proximité